214  
ASUS44 KLIX 240112  
RWRLIX  
NEW ORLEANS REGIONAL WEATHER ROUNDUP  
NATIONAL WEATHER SERVICE NEW ORLEANS LA  
800 PM CDT SUN APR 23 2017  
 
NOTE: "FAIR" INDICATES FEW OR NO CLOUDS BELOW 12,000 FEET WITH NO  
SIGNIFICANT WEATHER AND/OR S TO VISIBILITY
.  
SKY/WX - SKY CONDITION AND SIGNIFICANT WEATHER.  
TMP - AIR TEMPERATURE. DP - DEWPOINT TEMPERATURE.  
RH - RELATIVE HUMIDITY. PRES - PRESSURE.  
HI - HEAT INDEX. WCI - WIND CHILL INDEX.  
 
* THESE STATIONS ARE NOT NWS OR FAA STATIONS AND ARE NOT UNDER  
NWS QUALITY CONTROL.  
 
LAZ038-040-048-061>063-065>067-069-240200-  
SOUTHEAST LOUISIANA  
 
CITY SKY/WX TMP DP RH WIND PRES REMARKS
 
N.O. INTL ARPT MOCLDY 62 48 60 N14G24 29.93R  
N.O. LAKEFRONT CLOUDY 63 52 67 N25 29.93R  
N.O. DOWNTOWN* N/A 63 49 60 N12G22 N/A  
RESERVE* NOT AVBL  
SLIDELL CLOUDY 59 50 72 N7 29.93R  
BATON ROUGE CLEAR 59 50 72 CALM 29.96R  
BOOTHVILLE CLOUDY 65 53 65 NW17G26 29.89R  
BELLE CHASSE CLOUDY N/A N/A N/A MISG 29.92R  
BOGALUSA* NOT AVBL  
GALLIANO* MOCLDY 62 49 62 NW14G20 29.92R  
NEW ROADS* N/A 58 50 74 CALM 29.96S  
GONZALES* N/A 60 48 65 N8G16 29.95R  
HAMMOND* CLOUDY 59 50 72 NW3 29.94S  
HOUMA* PTCLDY 60 50 69 N10 29.93R  
PORT FOURCHON* MOCLDY 64 52 63 N17 29.91R  
 

 
 
MSZ070-080>082-240200-  
SOUTHERN MISSISSIPPI  
 
CITY SKY/WX TMP DP RH WIND PRES REMARKS
 
MCCOMB CLEAR 56 49 77 CALM 29.94R  
GULFPORT CLOUDY 61 50 67 NW14 29.90R  
BILOXI CLOUDY 61 50 67 N15G23 29.90R  
PASCAGOULA CLOUDY 60 48 64 N13G21 29.89R  
STENNIS ARPT* CLOUDY 57 46 67 N9G18 29.92  
 

 
 
COASTAL OBSERVATIONS  
LAKE AND NEARSHORE STATIONS  
 
STATION/POSITION TIME TEMP WIND PRES WAVE
 
AIR SEA DIR/SP/G HT/PER  
(UTC) (F) (DEG/KT/KT) (MB) (FT/S)  
PASCAGOULA 0036 62 340/ 11/ 19 1011.4  
WAVELAND YACHT 0036 61 75 340/ 17/ 24 1012.5  
GRAND ISLE 0036 66 76 350/ 16/ 24 1012.1  
SOUTHWEST PASS 0036 340/ 15/ 19 N/A  
NEW CANAL 0036 63 74 360/ 19/ 23 1013.2  
SHELL BEACH 0036 63 76 340/ 23/ 27 1012.7  
 
OFFSHORE STATIONS  
 
STATION/POSITION TIME TEMP WIND PRES WAVE
 
AIR SEA DIR/SP/G HT/PER  
(UTC) (F) (DEG/KT/KT) (MB) (FT/S)  
64 S DAUPHIN ISL 0050 69 75 300/ 17/ 23 1010.9 4/ 5  
 

 
 
 
 
CLICK HERE TO GO TO PREVIOUS BULLETINS.

The Nexlab LA Page
The Nexlab MS Page Main Text Page